GW7121 Weather Reports


time (UTC)temp
F
wind
direction
speed
knots
gust
knots
rain 1hr
in
rain 24hr
in
rain mn
in
humidity
%
barometer
mb
20260506181906 69 290 0.9 1.7 0.00 0.00 0.00 63 1022.6
20260506181404 68 309 0.9 2.6 0.00 0.00 0.00 64 1022.6
20260506180901 68 324 1.7 3.5 0.00 0.00 0.00 64 1022.6
20260506180357 68 338 1.7 4.3 0.00 0.00 0.00 65 1022.6
20260506175854 67 302 1.7 3.5 0.00 0.00 0.00 65 1022.6
20260506175350 67 278 0.0 2.6 0.00 0.00 0.00 66 1022.6
20260506174847 67 301 0.0 1.7 0.00 0.00 0.00 66 1022.6
20260506174345 67 301 0.9 2.6 0.00 0.00 0.00 66 1022.6
20260506173842 66 329 0.9 3.5 0.00 0.00 0.00 66 1022.6
20260506173339 66 320 0.9 2.6 0.00 0.00 0.00 66 1022.6
20260506172836 65 312 0.0 2.6 0.00 0.00 0.00 67 1022.6
20260506172332 65 333 1.7 3.5 0.00 0.00 0.00 67 1022.6
20260506171830 65 323 2.6 5.2 0.00 0.00 0.00 68 1022.6
20260506171327 65 311 1.7 3.5 0.00 0.00 0.00 68 1022.6
20260506170825 64 308 1.7 3.5 0.00 0.00 0.00 69 1022.6
20260506170320 64 343 1.7 3.5 0.00 0.00 0.00 70 1022.6
20260506165820 63 340 0.9 2.6 0.00 0.00 0.00 70 1022.6
20260506165317 63 331 1.7 4.3 0.00 0.00 0.00 70 1022.6
20260506164813 63 329 0.9 4.3 0.00 0.00 0.00 71 1022.9
20260506164310 62 325 2.6 4.3 0.00 0.00 0.00 71 1022.9
20260506163807 62 318 2.6 6.1 0.00 0.00 0.00 72 1022.9
20260506163302 62 336 0.0 0.9 0.00 0.00 0.00 73 1022.9
20260506162758 62 336 0.9 2.6 0.00 0.00 0.00 73 1022.9
20260506162256 61 312 2.6 3.5 0.00 0.00 0.00 75 1023.6
20260506161753 59 325 1.7 3.5 0.00 0.00 0.00 78 1023.6
20260506161250 59 346 0.9 1.7 0.00 0.00 0.00 79 1023.6
20260506153143 58 333 1.7 3.5 0.00 0.00 0.00 79 1023.6
20260506152640 58 333 1.7 3.5 0.00 0.00 0.00 79 1023.6
20260506152137 58 324 0.9 1.7 0.00 0.00 0.00 79 1023.6
20260506151636 58 325 1.7 4.3 0.00 0.00 0.00 80 1023.6
20260506151132 58 315 0.0 0.0 0.00 0.00 0.00 80 1023.6
20260506150629 58 315 0.9 2.6 0.00 0.00 0.00 80 1023.6
20260506150126 58 317 1.7 5.2 0.00 0.00 0.00 81 1023.6
20260506145623 58 327 0.9 2.6 0.00 0.00 0.00 81 1023.6
20260506145120 58 327 1.7 3.5 0.00 0.00 0.00 81 1023.6
20260506144617 58 327 0.9 2.6 0.00 0.00 0.00 81 1023.6
20260506144114 57 327 1.7 3.5 0.00 0.00 0.00 82 1023.6
20260506143612 57 327 0.0 1.7 0.00 0.00 0.00 82 1023.6
20260506143110 57 327 0.9 2.6 0.00 0.00 0.00 82 1023.6
20260506142608 57 327 0.9 2.6 0.00 0.00 0.00 83 1023.6
20260506142106 57 327 0.9 2.6 0.00 0.00 0.00 83 1023.6
20260506141602 57 327 1.7 2.6 0.00 0.00 0.00 84 1023.2
20260506141101 57 327 0.0 0.0 0.00 0.00 0.00 85 1023.2
20260506140558 57 327 0.9 2.6 0.00 0.00 0.00 85 1023.2
20260506140055 57 327 0.9 2.6 0.00 0.00 0.00 85 1023.2
20260506135552 56 327 0.9 3.5 0.00 0.00 0.00 86 1023.2
20260506135048 56 327 0.0 1.7 0.00 0.00 0.00 86 1022.9
20260506134545 56 327 0.0 1.7 0.00 0.00 0.00 86 1022.9
20260506134041 56 327 0.9 3.5 0.00 0.00 0.00 86 1022.9
20260506133538 56 327 1.7 2.6 0.00 0.00 0.00 86 1022.9
20260506133035 56 327 0.9 1.7 0.00 0.00 0.00 87 1022.9
20260506132532 56 327 0.9 2.6 0.00 0.00 0.00 87 1022.6
20260506132030 56 327 0.9 1.7 0.00 0.00 0.00 87 1022.6
20260506131527 56 327 0.0 0.0 0.00 0.00 0.00 87 1022.6
20260506131023 56 327 0.0 0.0 0.00 0.00 0.00 88 1022.6
20260506130520 56 327 0.9 1.7 0.00 0.00 0.00 88 1022.6
20260506130017 56 327 0.0 1.7 0.00 0.00 0.00 88 1022.6
20260506125515 56 327 0.9 2.6 0.00 0.00 0.00 88 1022.6
20260506125013 56 327 0.0 1.7 0.00 0.00 0.00 88 1022.6
20260506124511 56 327 1.7 3.5 0.00 0.00 0.00 88 1022.6
20260506124008 56 327 0.9 1.7 0.00 0.00 0.00 88 1022.6
20260506123506 56 327 0.9 2.6 0.00 0.00 0.00 87 1022.6
20260506123004 56 327 1.7 1.7 0.00 0.00 0.00 87 1022.6
20260506122500 55 327 0.9 1.7 0.00 0.00 0.00 88 1022.6
20260506121959 55 327 1.7 1.7 0.00 0.00 0.00 88 1022.6
20260506121455 55 327 0.0 0.9 0.00 0.00 0.00 88 1022.6
20260506120952 55 327 0.9 2.6 0.00 0.00 0.00 88 1022.6
20260506120449 55 327 1.7 1.7 0.00 0.00 0.00 88 1022.6
20260506115947 55 327 1.7 1.7 0.00 0.00 0.00 88 1022.6
20260506115445 55 327 1.7 2.6 0.00 0.00 0.00 88 1022.6
20260506114943 55 327 0.9 2.6 0.00 0.00 0.00 88 1022.6
20260506114440 55 327 0.9 1.7 0.00 0.00 0.00 89 1022.6
20260506113938 55 327 0.9 1.7 0.00 0.00 0.00 89 1022.6
20260506113436 55 327 0.0 0.0 0.00 0.00 0.00 89 1022.6
20260506112932 54 327 0.0 1.7 0.00 0.00 0.00 89 1022.2
20260506112430 54 327 0.0 0.0 0.00 0.00 0.00 89 1022.2
20260506111927 54 327 0.0 0.0 0.00 0.00 0.00 89 1022.2
20260506111425 54 327 0.0 0.0 0.00 0.00 0.00 89 1022.2
20260506110922 54 327 0.0 0.0 0.00 0.00 0.00 89 1022.2
20260506110420 54 327 0.0 0.0 0.00 0.00 0.00 89 1022.2
20260506105916 54 327 0.0 0.0 0.00 0.00 0.00 89 1022.2
20260506105412 53 327 0.0 0.0 0.00 0.00 0.00 89 1022.2
20260506104910 53 327 0.0 0.0 0.00 0.00 0.00 89 1021.9
20260506104408 53 327 0.9 1.7 0.00 0.00 0.00 89 1021.9
20260506103905 53 327 0.0 0.9 0.00 0.00 0.00 89 1021.9
20260506103402 53 327 0.9 2.6 0.00 0.00 0.00 89 1021.9
20260506102859 53 327 0.9 1.7 0.00 0.00 0.00 89 1021.9
20260506102358 53 327 0.9 1.7 0.00 0.00 0.00 89 1021.9
20260506101854 53 327 0.0 0.0 0.00 0.00 0.00 89 1021.9
20260506101350 53 327 0.0 0.0 0.00 0.00 0.00 89 1021.9
20260506100848 53 327 0.0 0.0 0.00 0.00 0.00 89 1021.5
20260506100346 53 327 0.9 1.7 0.00 0.00 0.00 89 1021.5
20260506095844 53 327 1.7 3.5 0.00 0.00 0.00 89 1021.5
20260506095342 53 327 1.7 2.6 0.00 0.00 0.00 89 1021.5
20260506094838 53 327 1.7 2.6 0.00 0.00 0.00 89 1021.5
20260506094337 53 327 0.0 0.9 0.00 0.00 0.00 88 1021.5
20260506093835 53 327 0.0 0.0 0.00 0.00 0.00 88 1021.2
20260506093332 53 327 0.0 0.0 0.00 0.00 0.00 88 1021.2
20260506092829 53 327 0.0 0.0 0.00 0.00 0.00 88 1021.2
20260506092327 53 327 0.0 0.0 0.00 0.00 0.00 87 1021.5
20260506091824 53 327 0.0 0.0 0.00 0.00 0.00 87 1021.5
20260506091322 53 327 0.0 0.0 0.00 0.00 0.00 87 1021.5
20260506090819 53 327 0.0 0.0 0.00 0.00 0.00 87 1021.5
20260506090316 54 327 0.0 0.0 0.00 0.00 0.00 87 1021.5
20260506085813 54 327 0.0 0.0 0.00 0.00 0.00 87 1021.5
20260506085309 54 327 0.0 0.0 0.00 0.00 0.00 86 1021.5
20260506084806 54 327 0.0 0.0 0.00 0.00 0.00 86 1021.5
20260506084302 54 327 0.0 0.0 0.00 0.00 0.00 86 1021.5
20260506083759 54 327 0.0 0.0 0.00 0.00 0.00 86 1021.9
20260506083257 54 327 0.0 0.0 0.00 0.00 0.00 86 1021.9
20260506082754 54 327 0.0 0.0 0.00 0.00 0.00 85 1021.9
20260506082249 55 327 0.0 0.0 0.00 0.00 0.00 85 1021.9
20260506081747 55 327 0.0 0.0 0.00 0.00 0.00 85 1021.9
20260506081244 55 327 0.0 0.0 0.00 0.00 0.00 85 1021.9
20260506080743 55 327 0.0 0.0 0.00 0.00 0.00 85 1021.9
20260506080238 55 327 0.0 0.0 0.00 0.00 0.00 84 1021.9
20260506073223 56 327 0.9 1.7 0.00 0.00 0.00 83 1021.5
20260506072719 56 327 0.0 1.7 0.00 0.00 0.00 82 1021.5
20260506072217 56 327 0.0 2.6 0.00 0.00 0.00 82 1021.5
20260506071714 56 327 0.0 0.0 0.00 0.00 0.00 82 1021.5
20260506071212 56 327 0.0 1.7 0.00 0.00 0.00 82 1021.5
20260506070709 56 327 0.0 1.7 0.00 0.00 0.00 82 1021.2
20260506070206 56 327 0.9 1.7 0.00 0.00 0.00 82 1021.2
20260506062143 56 327 0.9 2.6 0.00 0.01 0.01 82 1020.9
20260506061639 56 327 0.0 0.0 0.00 0.01 0.01 82 1020.9
20260506061137 57 327 0.0 0.0 0.00 0.01 0.01 82 1020.5
20260506060635 57 327 0.0 0.0 0.00 0.01 0.01 81 1020.5
20260506060131 57 327 0.9 1.7 0.00 0.01 0.01 81 1020.5
20260506051103 58 327 1.7 2.6 0.00 0.01 0.01 80 1019.8
20260506050602 58 327 0.9 2.6 0.00 0.01 0.01 80 1019.8
20260506045052 58 327 0.9 1.7 0.00 0.01 0.01 81 1020.2
20260506044550 59 327 0.9 1.7 0.00 0.01 0.01 81 1019.8
20260506044046 59 327 0.0 1.7 0.00 0.01 0.01 81 1019.8
20260506043543 59 327 0.0 0.0 0.00 0.01 0.01 81 1019.8
20260506043042 59 327 0.0 0.0 0.00 0.01 0.01 81 1019.8
20260506042541 59 327 0.0 0.9 0.00 0.01 0.01 81 1019.5
20260506042038 59 327 0.0 0.0 0.00 0.01 0.01 80 1019.5
20260506041537 59 327 0.0 0.0 0.00 0.01 0.01 80 1019.5
20260506041033 59 327 0.0 0.0 0.00 0.01 0.01 80 1019.5
20260506040531 59 327 0.0 0.0 0.00 0.01 0.01 80 1019.5
20260506040026 59 327 0.0 0.0 0.00 0.01 0.01 80 1019.5
20260506035524 60 327 0.0 0.0 0.00 0.01 0.01 79 1019.2
20260506035020 60 327 0.0 0.0 0.00 0.01 0.01 79 1019.2
20260506034518 60 327 0.0 0.0 0.00 0.01 0.01 79 1019.2
20260506034015 60 327 0.0 1.7 0.00 0.01 0.01 78 1019.5
20260506033512 60 327 0.0 1.7 0.00 0.01 0.01 78 1019.2
20260506033009 60 327 0.0 0.0 0.00 0.01 0.01 78 1019.2
20260506032506 60 327 0.0 0.0 0.00 0.01 0.01 78 1019.2
20260506032002 60 327 0.0 0.0 0.00 0.01 0.01 78 1018.8
20260506031500 61 327 0.0 0.0 0.00 0.01 0.01 78 1018.8
20260506030957 61 327 0.0 0.0 0.00 0.01 0.01 78 1018.8
20260506030455 61 327 0.0 0.0 0.00 0.01 0.01 77 1018.8
20260506025952 61 327 0.0 0.0 0.00 0.01 0.01 77 1018.8
20260506025449 62 327 0.0 0.0 0.00 0.01 0.01 76 1018.8
20260506024945 62 327 0.0 0.0 0.00 0.01 0.01 76 1018.8
20260506024442 62 327 0.0 0.0 0.00 0.01 0.01 75 1018.8
20260506023938 62 327 0.0 0.0 0.00 0.01 0.01 75 1018.5
20260506023435 62 327 0.0 0.0 0.00 0.01 0.01 75 1018.5
20260506022932 62 327 0.0 0.0 0.00 0.01 0.01 74 1018.5
20260506022429 62 327 0.0 0.0 0.00 0.01 0.01 74 1018.5
20260506021927 62 327 0.0 0.0 0.00 0.01 0.01 73 1018.5
20260506021424 62 327 0.0 1.7 0.00 0.01 0.01 73 1018.5
20260506020921 62 327 0.0 0.0 0.00 0.01 0.01 73 1018.5
20260506020419 62 327 0.9 1.7 0.00 0.01 0.01 72 1018.5
20260506015916 62 327 0.0 0.0 0.00 0.01 0.01 71 1018.1
20260506015414 62 327 0.9 2.6 0.00 0.01 0.01 71 1018.1
20260506014910 63 327 1.7 3.5 0.00 0.01 0.01 70 1018.1
20260506014407 63 321 1.7 3.5 0.00 0.01 0.01 70 1018.1
20260506013904 63 330 2.6 3.5 0.00 0.01 0.01 70 1018.1
20260506013402 63 327 1.7 5.2 0.00 0.01 0.01 70 1018.1
20260506012857 63 294 1.7 2.6 0.00 0.01 0.01 70 1018.5
20260506012354 63 294 0.0 1.7 0.00 0.01 0.01 70 1018.5
20260506011851 63 294 0.0 1.7 0.00 0.01 0.01 70 1018.5
20260506011348 63 294 1.7 3.5 0.00 0.01 0.01 70 1018.5
20260506010846 63 294 0.9 1.7 0.00 0.01 0.01 70 1018.5
20260506010344 63 294 0.0 0.0 0.00 0.01 0.01 69 1018.5
20260506005840 63 294 1.7 2.6 0.00 0.01 0.01 69 1018.5
20260506005337 63 294 0.9 2.6 0.00 0.01 0.01 70 1018.5
20260506004833 63 294 0.0 0.9 0.00 0.01 0.01 70 1018.5
20260506004331 63 294 1.7 2.6 0.00 0.01 0.01 70 1018.5
20260506003827 63 294 0.9 1.7 0.00 0.01 0.01 70 1018.5
20260506003323 63 294 0.0 0.0 0.00 0.01 0.01 70 1018.5
20260506002820 63 294 0.0 0.0 0.00 0.01 0.01 70 1018.5
20260506002316 63 294 1.7 2.6 0.00 0.01 0.01 70 1018.5
20260506001812 63 293 0.9 3.5 0.00 0.01 0.01 70 1018.1
20260506001309 63 293 0.9 2.6 0.00 0.01 0.01 70 1018.1
20260506000806 63 292 0.0 2.6 0.00 0.01 0.01 71 1018.1
20260506000304 63 325 0.9 1.7 0.00 0.01 0.01 71 1018.1
20260505235800 63 325 0.0 1.7 0.00 0.01 0.01 70 1018.1
20260505235258 63 325 0.0 0.9 0.00 0.01 0.01 70 1018.1
20260505234755 63 325 0.9 1.7 0.00 0.01 0.01 71 1018.1
20260505234252 63 325 0.9 2.6 0.00 0.01 0.01 70 1018.1
20260505233749 63 325 1.7 3.5 0.00 0.01 0.01 70 1018.1
20260505233247 63 325 1.7 3.5 0.00 0.01 0.01 70 1018.1
20260505232744 63 325 0.9 2.6 0.00 0.01 0.01 70 1018.1
20260505232241 63 325 1.7 2.6 0.00 0.01 0.01 70 1018.1
20260505231737 63 327 0.9 2.6 0.00 0.01 0.01 70 1018.1
20260505231237 63 324 1.7 5.2 0.00 0.01 0.01 70 1018.1
20260505230735 63 280 0.9 2.6 0.00 0.01 0.01 71 1018.1
20260505230231 63 280 0.9 1.7 0.00 0.01 0.01 71 1018.1
20260505225727 63 327 1.7 3.5 0.00 0.01 0.01 71 1018.1
20260505225225 62 316 2.6 5.2 0.00 0.01 0.01 71 1018.1
20260505224720 63 306 1.7 3.5 0.00 0.01 0.01 71 1018.1
20260505224218 63 327 1.7 4.3 0.00 0.01 0.01 71 1018.1
20260505223715 63 324 2.6 4.3 0.00 0.01 0.01 71 1018.1
20260505223211 62 324 0.9 1.7 0.00 0.01 0.01 72 1018.5
20260505222707 62 340 0.9 3.5 0.00 0.01 0.01 72 1018.5
20260505222203 62 319 0.0 0.0 0.00 0.01 0.01 73 1018.5
20260505221701 62 319 0.9 1.7 0.00 0.01 0.01 73 1018.5
20260505221157 62 315 2.6 5.2 0.00 0.01 0.01 73 1018.5
20260505220654 62 296 1.7 5.2 0.00 0.01 0.01 73 1018.5
20260505220152 62 317 1.7 3.5 0.00 0.01 0.01 73 1018.5
20260505215650 62 343 0.9 4.3 0.00 0.01 0.01 73 1018.5
20260505215148 62 315 1.7 4.3 0.00 0.01 0.01 73 1018.5
20260505214645 61 324 0.9 2.6 0.00 0.01 0.01 73 1018.5
20260505214142 61 286 0.9 2.6 0.00 0.01 0.01 73 1018.8
20260505213640 61 278 0.9 2.6 0.00 0.01 0.01 73 1018.8
20260505213136 61 311 2.6 4.3 0.00 0.01 0.01 74 1018.5
20260505212632 61 325 2.6 5.2 0.00 0.01 0.01 74 1018.8
20260505212130 61 334 0.9 3.5 0.00 0.01 0.01 74 1018.5
20260505211627 61 334 0.0 1.7 0.00 0.01 0.01 73 1018.5
20260505211124 61 310 2.6 5.2 0.00 0.01 0.01 73 1018.5
20260505210621 61 308 2.6 6.1 0.00 0.01 0.01 73 1018.5
20260505210117 61 302 2.6 5.2 0.00 0.01 0.01 74 1018.5
20260505205615 61 307 2.6 3.5 0.00 0.01 0.01 74 1018.5
20260505205113 60 315 0.9 2.6 0.00 0.01 0.01 75 1018.8
20260505204610 60 298 0.9 3.5 0.00 0.01 0.01 75 1018.8
20260505204107 60 305 1.7 3.5 0.00 0.01 0.01 75 1018.8
20260505203603 60 321 0.0 0.9 0.00 0.01 0.01 75 1019.2
20260505203101 60 318 2.6 6.1 0.00 0.01 0.01 75 1019.2
20260505202556 60 308 2.6 7.0 0.00 0.01 0.01 75 1018.8
20260505202053 60 321 0.9 3.5 0.00 0.01 0.01 75 1018.8
20260505201549 60 316 1.7 3.5 0.00 0.01 0.01 75 1019.2
20260505201047 60 327 2.6 3.5 0.00 0.01 0.01 75 1019.2
20260505200545 60 327 1.7 3.5 0.00 0.01 0.01 76 1019.2
20260505200042 59 343 0.9 2.6 0.00 0.01 0.01 76 1019.2
20260505195538 59 338 1.7 3.5 0.00 0.01 0.01 76 1019.2
20260505195036 59 321 1.7 3.5 0.00 0.01 0.01 77 1019.2
20260505194533 59 327 1.7 3.5 0.00 0.01 0.01 76 1019.2
20260505194027 59 315 3.5 6.1 0.00 0.01 0.01 75 1019.2
20260505193525 59 316 1.7 3.5 0.00 0.01 0.01 76 1019.2
20260505193022 59 316 0.0 1.7 0.00 0.01 0.01 76 1019.2
20260505192521 59 298 2.6 5.2 0.00 0.01 0.01 75 1019.2
20260505192018 59 297 0.9 2.6 0.00 0.01 0.01 75 1019.2
20260505191516 59 327 0.9 2.6 0.00 0.01 0.01 75 1019.2
20260505191014 59 303 1.7 3.5 0.00 0.01 0.01 75 1019.2
20260505190508 59 321 0.9 4.3 0.00 0.01 0.01 75 1019.2
20260505190005 59 338 0.9 4.3 0.00 0.01 0.01 75 1019.2
20260505185502 59 294 1.7 3.5 0.00 0.01 0.01 76 1019.2
20260505184957 59 312 2.6 5.2 0.00 0.01 0.01 76 1019.2
20260505184455 59 338 1.7 3.5 0.00 0.01 0.01 76 1018.8
20260505183951 59 321 1.7 3.5 0.00 0.01 0.01 75 1018.8
20260505183448 59 323 2.6 5.2 0.00 0.01 0.01 75 1018.8
20260505182945 59 324 0.9 1.7 0.00 0.01 0.01 75 1018.8
20260505182442 59 171 0.0 2.6 0.00 0.01 0.01 76 1018.8